Voltar ao catálogo

SL-12 R/B(2)

AtivoGEO
NORAD 14114·ROCKET BODY·🇷🇺 Russia

Lançado May 17, 1982 de Baikonur Cosmodrome

Loading…

TLE

AtualizadoSource: Space-Track

Época: Sep 14, 2026, 08:38 UTC

1 14114U 82044F   26257.35983174 -.00000077  00000-0  00000-0 0  9996
2 14114   7.9851 295.7326 0015662 206.1423 333.6674  1.00274950 48232

Acompanhe SL-12 R/B(2) em tempo real com AllMySat

Download on the App Store